Weather History for KPYM - October, 2012

Change the Weather History Date:

Sunday, October 7, 2012

  Actual Average Record
Temperature  
Mean Temperature 52 °F -  
Max Temperature 61 °F 66 °F 87 °F (1963)
Min Temperature 45 °F 42 °F 25 °F (1984)
Degree Days  
Heating Degree Days 13    
Growing Degree Days 2 (Base 50)    
Moisture  
Dew Point 45 °F    
Average Humidity 79    
Maximum Humidity 93    
Minimum Humidity 49    
Precipitation  
Precipitation 0.10 in - - ()
Sea Level Pressure  
Sea Level Pressure 30.04 in    
Wind  
Wind Speed 3 mph (WNW)    
Max Wind Speed 12 mph    
Max Gust Speed 20 mph    
Visibility 9 miles    
Events Rain    
Averages and records for this station are not official NWS values.
T = Trace of Precipitation, MM = Missing Value Source: NWS Daily Summary

Daily Weather History Graph

Daily Weather History Graph

Search for Another Location

Airport or City:

Trip Planner

Search our weather history database for the weather conditions in past years. The results will help you decide how hot, cold, wet, or windy it might be!

Date:

Astronomy

Oct. 07, 2012 Rise Set
Actual Time 6:46 AM EDT 6:13 PM EDT
Civil Twilight 6:18 AM EDT 6:41 PM EDT
Nautical Twilight 5:46 AM EDT 7:13 PM EDT
Astronomical Twilight 5:14 AM EDT 7:46 PM EDT
Moon 11:18 PM EDT (10/7) 1:25 PM EDT (10/7)
Length of Visible Light 12h 22m
Length of Day
11h 26m
Waning Gibbous, 56% of the Moon is Illuminated
Oct 7
Waning Gibbous
Oct 8
Last Quarter
Oct 15
New
Oct 21
First Quarter
Oct 29
Full

Hourly Weather History & Observations

Time (EDT) Temp. Windchill Dew Point Humidity Pressure Visibility Wind Dir Wind Speed Gust Speed Precip Events Conditions
1:52 AM 50.0 °F - 43.0 °F 77% 29.97 in 10.0 mi WNW 4.6 mph - N/A   Clear
2:52 AM 48.0 °F - 43.0 °F 83% 29.98 in 10.0 mi Calm Calm - N/A   Clear
3:52 AM 46.9 °F - 41.0 °F 80% 29.98 in 10.0 mi WNW 3.5 mph - N/A   Clear
4:52 AM 46.0 °F 44.8 °F 42.1 °F 86% 30.00 in 10.0 mi WNW 3.5 mph - N/A   Clear
5:52 AM 45.0 °F 42.6 °F 39.9 °F 82% 30.01 in 10.0 mi WNW 4.6 mph - N/A   Clear
6:52 AM 45.0 °F 41.8 °F 39.9 °F 82% 30.04 in 10.0 mi WNW 5.8 mph - N/A   Clear
7:52 AM 46.9 °F - 39.9 °F 77% 30.06 in 10.0 mi WNW 6.9 mph - N/A   Clear
8:52 AM 51.1 °F - 41.0 °F 68% 30.07 in 10.0 mi WNW 5.8 mph - N/A   Clear
9:52 AM 55.9 °F - 42.1 °F 60% 30.07 in 10.0 mi West 8.1 mph - N/A   Clear
10:52 AM 57.9 °F - 42.1 °F 56% 30.05 in 10.0 mi WNW 5.8 mph - N/A   Clear
11:52 AM 59.0 °F - 39.9 °F 49% 30.06 in 10.0 mi WSW 4.6 mph - N/A   Clear
12:52 PM 59.0 °F - 39.9 °F 49% 30.05 in 10.0 mi West 4.6 mph - N/A   Clear
1:52 PM 59.0 °F - 39.9 °F 49% 30.04 in 10.0 mi WNW 3.5 mph - N/A   Overcast
2:52 PM 55.9 °F - 44.1 °F 64% 30.06 in 10.0 mi East 3.5 mph - 0.00 in Rain Light Rain
3:52 PM 54.0 °F - 46.0 °F 75% 30.05 in 10.0 mi Calm Calm - 0.01 in Rain Light Rain
4:52 PM 53.1 °F - 46.0 °F 77% 30.04 in 7.0 mi Calm Calm - 0.02 in Rain Light Rain
5:00 PM 53.6 °F - 44.6 °F 72% 30.03 in 9.0 mi Calm Calm - 0.01 in Rain Light Rain
5:16 PM 51.8 °F - 46.4 °F 82% 30.04 in 5.0 mi Calm Calm - 0.02 in Rain Light Rain
5:41 PM 51.8 °F - 46.4 °F 82% 30.04 in 10.0 mi Calm Calm - 0.03 in Rain Light Rain
5:52 PM 51.1 °F - 46.0 °F 83% 30.05 in 10.0 mi Calm Calm - 0.03 in Rain Light Rain
6:17 PM 51.8 °F - 46.4 °F 82% 30.04 in 10.0 mi Calm Calm - 0.00 in   Overcast
6:52 PM 51.1 °F - 48.0 °F 89% 30.04 in 10.0 mi Calm Calm - 0.00 in   Overcast
7:38 PM 51.8 °F - 48.2 °F 88% 30.03 in 10.0 mi Calm Calm - N/A   Overcast
7:49 PM 51.8 °F - 46.4 °F 82% 30.03 in 10.0 mi Calm Calm - N/A   Overcast
7:52 PM 51.1 °F - 46.9 °F 86% 30.04 in 10.0 mi Calm Calm - N/A   Overcast
8:12 PM 51.8 °F - 48.2 °F 88% 30.01 in 8.0 mi East 4.6 mph - N/A   Overcast
8:52 PM 51.1 °F - 48.0 °F 89% 30.01 in 10.0 mi Calm Calm - N/A   Overcast
9:20 PM 51.8 °F - 48.2 °F 88% 30.02 in 10.0 mi Calm Calm - N/A   Overcast
9:52 PM 51.1 °F - 48.9 °F 92% 30.04 in 10.0 mi West 4.6 mph - 0.00 in   Overcast
10:04 PM 51.8 °F - 48.2 °F 88% 30.03 in 7.0 mi Calm Calm - 0.00 in Rain Light Rain
10:17 PM 51.8 °F - 48.2 °F 88% 30.04 in 5.0 mi West 3.5 mph - 0.01 in Rain Light Rain
10:52 PM 50.0 °F - 46.9 °F 89% 30.06 in 5.0 mi West 9.2 mph - 0.02 in Rain Light Rain
11:03 PM 50.0 °F - 46.4 °F 87% 30.05 in 5.0 mi WNW 6.9 mph - 0.00 in Rain Light Rain
11:43 PM 48.2 °F - 46.4 °F 93% 30.06 in 6.0 mi WNW 10.4 mph - 0.01 in Rain Light Rain
11:52 PM 48.0 °F - 45.0 °F 89% 30.07 in 6.0 mi WNW 11.5 mph 19.6 mph 0.02 in Rain Light Rain